• In India
  • List of Countries
  • For 7 days
  • Water Temperature
  • Satellite Maps
  • Weather Map
  • Weather Widgets
  • user-avatar
    Login

    Hourly Weather Kerns

    Today, 16 December, Sunday

    Time Temperature Precipitation Wind Pressure Humidity
    00:00 +27°C° 0.5 mm 4 mps 751 mmHg 90%
    01:00 +26°C° 0.5 mm 4 mps 750 mmHg 88%
    02:00 +25°C° 0 mm 4 mps 750 mmHg 86%
    03:00 +25°C° 0 mm 4 mps 750 mmHg 84%
    04:00 +27°C° 0 mm 5 mps 750 mmHg 97%
    05:00 +27°C° 0.1 mm 5 mps 750 mmHg 94%
    06:00 +28°C° 0.1 mm 4 mps 750 mmHg 90%
    07:00 +28°C° 0.1 mm 4 mps 751 mmHg 87%
    08:00 +30°C° 0 mm 4 mps 751 mmHg 80%
    09:00 +32°C° 0 mm 4 mps 751 mmHg 73%
    10:00 +33°C° 0 mm 3 mps 753 mmHg 67%
    11:00 +35°C° 0 mm 3 mps 752 mmHg 60%
    12:00 +36°C° 0 mm 3 mps 752 mmHg 54%
    13:00 +38°C° 0 mm 3 mps 752 mmHg 47%
    14:00 +38°C° 0 mm 3 mps 751 mmHg 46%
    15:00 +38°C° 0 mm 3 mps 751 mmHg 46%
    16:00 +38°C° 0 mm 4 mps 750 mmHg 45%
    17:00 +36°C° 0.2 mm 3 mps 751 mmHg 54%
    18:00 +32°C° 0.2 mm 2 mps 751 mmHg 62%
    19:00 +30°C° 0.2 mm 2 mps 752 mmHg 71%
    20:00 +29°C° 0.1 mm 2 mps 752 mmHg 71%
    21:00 +28°C° 0.1 mm 1 mps 752 mmHg 70%
    22:00 +27°C° 0.1 mm 1 mps 753 mmHg 70%
    23:00 +27°C° 0 mm 1 mps 752 mmHg 67%

    Tomorrow, 17 December, Monday

    Time Temperature Precipitation Wind Pressure Humidity
    00:00 +26°C° 0 mm 2 mps 752 mmHg 64%
    01:00 +25°C° 0 mm 2 mps 752 mmHg 62%
    02:00 +25°C° 0 mm 2 mps 752 mmHg 60%
    03:00 +25°C° 0 mm 2 mps 752 mmHg 58%
    04:00 +24°C° 0 mm 3 mps 752 mmHg 57%
    05:00 +25°C° 0 mm 3 mps 753 mmHg 58%
    06:00 +26°C° 0 mm 3 mps 753 mmHg 58%
    07:00 +26°C° 0 mm 3 mps 753 mmHg 59%
    08:00 +29°C° 0 mm 3 mps 753 mmHg 50%
    09:00 +34°C° 0 mm 2 mps 753 mmHg 41%
    10:00 +37°C° 0 mm 2 mps 754 mmHg 33%
    11:00 +38°C° 0 mm 2 mps 753 mmHg 31%
    12:00 +39°C° 0 mm 2 mps 753 mmHg 29%
    13:00 +40°C° 0 mm 3 mps 752 mmHg 27%
    14:00 +40°C° 0 mm 3 mps 752 mmHg 29%
    15:00 +39°C° 0 mm 3 mps 751 mmHg 30%
    16:00 +39°C° 0 mm 3 mps 751 mmHg 31%
    17:00 +36°C° 0 mm 2 mps 751 mmHg 40%
    18:00 +34°C° 0 mm 2 mps 752 mmHg 49%
    19:00 +30°C° 0 mm 1 mps 752 mmHg 58%
    20:00 +29°C° 0 mm 1 mps 753 mmHg 60%
    21:00 +29°C° 0 mm 1 mps 753 mmHg 62%
    22:00 +28°C° 0 mm 1 mps 754 mmHg 64%
    23:00 +28°C° 0 mm 2 mps 754 mmHg 62%

    Day after tomorrow, 18 December, Tuesday

    Time Temperature Precipitation Wind Pressure Humidity
    00:00 +28°C° 0 mm 2 mps 754 mmHg 60%
    01:00 +28°C° 0 mm 2 mps 754 mmHg 58%
    02:00 +28°C° 0 mm 2 mps 753 mmHg 56%
    03:00 +28°C° 0 mm 2 mps 753 mmHg 54%
    04:00 +27°C° 0 mm 2 mps 753 mmHg 52%
    05:00 +27°C° 0 mm 2 mps 753 mmHg 54%
    06:00 +27°C° 0 mm 2 mps 754 mmHg 56%
    07:00 +27°C° 0 mm 3 mps 754 mmHg 59%
    08:00 +30°C° 0 mm 3 mps 754 mmHg 54%
    09:00 +34°C° 0 mm 3 mps 754 mmHg 48%
    10:00 +37°C° 0 mm 3 mps 754 mmHg 43%
    11:00 +38°C° 0 mm 3 mps 754 mmHg 41%
    12:00 +40°C° 0 mm 3 mps 754 mmHg 39%
    13:00 +42°C° 0 mm 4 mps 753 mmHg 37%
    14:00 +40°C° 0 mm 4 mps 753 mmHg 44%
    15:00 +37°C° 0 mm 4 mps 753 mmHg 52%
    16:00 +36°C° 0 mm 4 mps 752 mmHg 60%
    17:00 +34°C° 0.6 mm 3 mps 753 mmHg 68%
    18:00 +33°C° 0.6 mm 3 mps 753 mmHg 77%
    19:00 +30°C° 0.6 mm 2 mps 754 mmHg 86%
    20:00 +30°C° 0.2 mm 2 mps 754 mmHg 87%
    21:00 +29°C° 0.2 mm 1 mps 755 mmHg 89%
    22:00 +29°C° 0.2 mm 1 mps 756 mmHg 90%
    23:00 +29°C° 0.1 mm 1 mps 755 mmHg 91%

    19 December, Wednesday

    Time Temperature Precipitation Wind Pressure Humidity
    00:00 +28°C° 0.1 mm 1 mps 755 mmHg 92%
    01:00 +28°C° 0.1 mm 1 mps 755 mmHg 93%
    02:00 +28°C° 0 mm 1 mps 755 mmHg 93%
    03:00 +28°C° 0 mm 1 mps 755 mmHg 93%
    04:00 +27°C° 0 mm 2 mps 754 mmHg 94%
    05:00 +28°C° 0 mm 2 mps 755 mmHg 91%
    06:00 +29°C° 0 mm 2 mps 755 mmHg 89%
    07:00 +29°C° 0 mm 2 mps 756 mmHg 87%
    08:00 +32°C° 0 mm 2 mps 756 mmHg 77%
    09:00 +35°C° 0 mm 2 mps 756 mmHg 66%
    10:00 +38°C° 0 mm 2 mps 756 mmHg 56%
    11:00 +38°C° 0.1 mm 3 mps 756 mmHg 56%
    12:00 +38°C° 0.1 mm 3 mps 755 mmHg 55%
    13:00 +37°C° 0.1 mm 4 mps 754 mmHg 55%
    14:00 +36°C° 0.9 mm 4 mps 754 mmHg 63%
    15:00 +35°C° 0.9 mm 4 mps 754 mmHg 70%
    16:00 +34°C° 0.9 mm 4 mps 753 mmHg 78%
    17:00 +33°C° 1.4 mm 4 mps 754 mmHg 82%
    18:00 +32°C° 1.4 mm 4 mps 754 mmHg 86%
    19:00 +30°C° 1.4 mm 3 mps 755 mmHg 91%
    20:00 +29°C° 0.9 mm 3 mps 755 mmHg 92%
    21:00 +29°C° 0.9 mm 3 mps 756 mmHg 92%
    22:00 +29°C° 0.9 mm 3 mps 756 mmHg 93%
    23:00 +29°C° 0.2 mm 3 mps 756 mmHg 93%

    20 December, Thursday

    Time Temperature Precipitation Wind Pressure Humidity
    00:00 +28°C° 0.2 mm 3 mps 756 mmHg 94%
    01:00 +28°C° 0.2 mm 4 mps 755 mmHg 94%
    02:00 +28°C° 0 mm 3 mps 755 mmHg 94%
    03:00 +28°C° 0 mm 3 mps 755 mmHg 94%
    04:00 +27°C° 0 mm 3 mps 755 mmHg 94%
    05:00 +28°C° 0 mm 3 mps 755 mmHg 93%
    06:00 +28°C° 0 mm 3 mps 756 mmHg 91%
    07:00 +29°C° 0 mm 3 mps 756 mmHg 89%
    08:00 +31°C° 0 mm 3 mps 756 mmHg 81%
    09:00 +34°C° 0 mm 3 mps 756 mmHg 73%
    10:00 +36°C° 0 mm 3 mps 756 mmHg 65%
    11:00 +36°C° 0.3 mm 3 mps 756 mmHg 66%
    12:00 +36°C° 0.3 mm 3 mps 755 mmHg 67%
    13:00 +36°C° 0.3 mm 4 mps 754 mmHg 68%
    14:00 +35°C° 0.5 mm 4 mps 754 mmHg 70%
    15:00 +35°C° 0.5 mm 4 mps 753 mmHg 72%
    16:00 +34°C° 0.5 mm 4 mps 753 mmHg 75%
    17:00 +33°C° 0.6 mm 3 mps 753 mmHg 80%
    18:00 +31°C° 0.6 mm 3 mps 754 mmHg 86%
    19:00 +30°C° 0.6 mm 3 mps 754 mmHg 91%
    20:00 +29°C° 0.1 mm 3 mps 755 mmHg 92%
    21:00 +29°C° 0.1 mm 3 mps 755 mmHg 93%
    22:00 +29°C° 0.1 mm 4 mps 755 mmHg 94%
    23:00 +28°C° 0 mm 3 mps 755 mmHg 95%

    21 December, Friday

    Time Temperature Precipitation Wind Pressure Humidity
    00:00 +28°C° 0 mm 3 mps 755 mmHg 95%
    01:00 +27°C° 0 mm 3 mps 754 mmHg 95%
    02:00 +27°C° 0 mm 3 mps 754 mmHg 95%
    03:00 +27°C° 0 mm 3 mps 754 mmHg 95%
    04:00 +27°C° 0 mm 3 mps 753 mmHg 94%
    05:00 +27°C° 0 mm 3 mps 754 mmHg 93%
    06:00 +28°C° 0 mm 3 mps 754 mmHg 91%
    07:00 +28°C° 0 mm 3 mps 755 mmHg 90%
    08:00 +31°C° 0 mm 3 mps 755 mmHg 80%
    09:00 +34°C° 0 mm 2 mps 755 mmHg 70%
    10:00 +37°C° 0 mm 2 mps 755 mmHg 61%
    11:00 +37°C° 0 mm 2 mps 754 mmHg 59%
    12:00 +38°C° 0 mm 2 mps 754 mmHg 57%
    13:00 +38°C° 0 mm 2 mps 753 mmHg 55%
    14:00 +37°C° 0.4 mm 3 mps 753 mmHg 60%
    15:00 +36°C° 0.4 mm 3 mps 753 mmHg 65%
    16:00 +36°C° 0.4 mm 4 mps 752 mmHg 70%
    17:00 +34°C° 1.1 mm 4 mps 753 mmHg 77%
    18:00 +31°C° 1.1 mm 3 mps 753 mmHg 84%
    19:00 +30°C° 1.1 mm 3 mps 754 mmHg 91%
    20:00 +29°C° 0.5 mm 2 mps 754 mmHg 92%
    21:00 +29°C° 0.5 mm 2 mps 754 mmHg 94%
    22:00 +28°C° 0.5 mm 2 mps 755 mmHg 95%
    23:00 +28°C° 0.1 mm 2 mps 754 mmHg 95%
    Show more